User: anonymous   Login
Location: Unspecified
(52.4292°N, 19.3359°E)
Time: 06:02:38
(UTC+02:00)
Language:

deb Explorer IX - Orbit

View from above orbital plane
View from above orbital plane
View from above satellite
View from above satellite

Ground track
Ground track

The orbit data is extracted from the following two-line orbital elements,

1 00085U 61004C   24141.39911688  .00042264  00000-0  56182-2 0  9993
2 00085  38.7382 156.9340 0267740 119.7577 243.0098 14.57111666136337
Epoch (UTC): 20 May 2024 09:34:43
Eccentricity: 0.0267740
inclination: 38.7382°
perigee height: 513 km
apogee height: 892 km
right ascension of ascending node: 156.9340°
argument of perigee: 119.7577°
revolutions per day: 14.57111666
mean anomaly at epoch: 243.0098°
orbit number at epoch: 13633

The dashed part of the orbit path shows where the satellite is in the earth's shadow,  

DLR